Tracking 19792 objects as of 15-Jul-2019
HD Live streaming from Space Station
objects crossing your sky now

FENGYUN 1C DEB

Track FENGYUN 1C DEB now!
10-day predictions


NORAD ID: 31995
Int'l Code: 1999-025CPY
Perigee: 838.7 km
Apogee: 1,049.0 km
Inclination: 98.4 °
Period: 103.8 minutes
Semi major axis: 7314 km
RCS: 0.0104 m2 (small)
Launch date: May 10, 1999
Source: People's Republic of China (PRC)
Launch site: Taiyaun Space Center, China (TSC)

Note: This is SATELLITE DEBRIS
aabbcc
Your satellite tracking list
Your tracking list is empty




NASA's NSSDC Master Catalog

Two Line Element Set (TLE):
1 31995U 99025CPY 19195.57789944 +.00000220 +00000-0 +20174-3 0  9991
2 31995 098.4277 122.2763 0143789 285.0702 073.4586 13.87702876304295
Source of the keplerian elements: AFSPC